Showing default

FLOCK 4Q 15, 58319

Orbit data source: Space-Track

FLOCK 4Q 15, 58319 is a payload satellite owned by Planet (US) in SSO that was launched on Sat, 11 Nov 2023 UTC via an FALCON 9 launch vehicle from the Air Force Western Test Range (AFWTR). Payload-class satellites include a variety of spacecraft equipped with specific instruments for various scientific and technological missions. These include communications satellites like Starlink; space stations such as the ISS; scientific satellites like the Hubble; Earth observation satellites from companies like Planet Labs, Umbra, and HawkEye 360; GPS; miniature CubeSats for education and research; and military/defense satellites.

Loading next visibility...
Identifier
58319, 2023-174BR
Orbit
SSO
Country
Flag of USUS
Related business
Manufacturer
Planet
Mission
Operational Commercial Imaging
Bus & Motor
CUBESAT 3U, Unknown motor
Mass
5.7 kg wet, 5.7 kg dry
Launch date (UTC)
2023-11-11 (2 years ago)
Launch vehicle
FALCON 9
Launch site
Air Force Western Test Range (AFWTR)
Object type
Payload
Rocket body
Debris
Shape & HBR
Box + 2 Pan, 1.0 m
Radar Cross Section
0.072 m², Medium (>0.1 m² and < 1m²)

Expand to show TLE details & history
Last TLE update: 7 hours ago

TLE from 7 hours ago
0 FLOCK 4Q 15
1 58319U 23174BR  25289.16719215  .00028121  00000-0  65545-3 0  9993
2 58319  97.4116  11.4519 0007216 291.2781  68.7695 15.42193555108104
Epoch: 2025-10-16T04:00Z
TLE epoch observation values (Epoch: 2025-10-16T04:00:45.401Z)
Latitude
-0.00007°
Longitude
-73.66807°
Altitude
440.978 km
Speed
7.648 km/s
True Right ascension
00h 45m 48s
True Declination
0° 00' 00"
Sunlit
Object was in full shadow at epoch
Visualization orbit readout
Latitude
Unknown
Longitude
Unknown
Altitude
Unknown
Speed
Unknown
Apparent Right ascension
Unknown
Apparent Declination
Unknown
Sunlit
N/A
Visualization observer readout
Local Sidereal Time
05:39:23
Azimuth
Unknown
Elevation
Unknown
Doppler factor
Unknown
Orbital elements
Apogee altitude
441.491 km
Perigee altitude
431.656 km
Semi-major axis
6,814.71 km
Eccentricity
0.00072
Inclination
97.4116°
RAAN
11.4519°
Arg. of periapsis
291.2781°
True anomaly
68.8466°
Mean anomaly
68.7695°
Eccentric anomaly
68.80805°
Mean motion
3.85809 °/min
Orbital period
93.31 mins
BSTAR
0.00065545
Loading maneuver chart data...
Computing Atmospheric mass density...

Documentation

Showing up to 5 results
|